Weather History for Wildwood, NJ

Change the Weather History Date:

Wednesday, November 21, 2012

  Actual Average Record
Temperature  
Mean Temperature 46 °F -  
Max Temperature 53 °F 52 °F 69 °F (1999)
Min Temperature 39 °F 38 °F 28 °F (2001)
Degree Days  
Heating Degree Days 19    
Moisture  
Dew Point 36 °F    
Average Humidity 72    
Maximum Humidity 87    
Minimum Humidity 47    
Precipitation  
Precipitation 0.00 in - - ()
Sea Level Pressure  
Sea Level Pressure 30.14 in    
Wind  
Wind Speed 7 mph (NNE)    
Max Wind Speed 14 mph    
Max Gust Speed 20 mph    
Visibility 10 miles    
Events      
Averages and records for this station are not official NWS values.
T = Trace of Precipitation, MM = Missing Value Source: NWS Daily Summary

Daily Weather History Graph

Daily Weather History Graph

Search for Another Location

Airport:

Trip Planner

Search our weather history database for the weather conditions in past years. The results will help you decide how hot, cold, wet, or windy it might be!

Date:

Astronomy

Nov. 21, 2012 Rise Set
Actual Time 6:49 AM EST 4:41 PM EST
Civil Twilight 6:20 AM EST 5:10 PM EST
Nautical Twilight 5:48 AM EST 5:42 PM EST
Astronomical Twilight 5:16 AM EST 6:14 PM EST
Moon 12:53 PM EST (11/21) 12:09 AM EST (11/21)
Length of Visible Light 10h 49m
Length of Day
9h 51m
First Quarter, 61% of the Moon is Illuminated
Nov 21
First Quarter
Nov 28
Full
Dec 6
Last Quarter
Dec 13
New
Dec 20
First Quarter

Hourly Weather History & Observations

Time (EST) Temp. Windchill Dew Point Humidity Pressure Visibility Wind Dir Wind Speed Gust Speed Precip Events Conditions
12:15 AM 41.0 °F 37.1 °F 35.6 °F 81% 30.09 in 10.0 mi North 5.8 mph - N/A   Clear
12:35 AM 41.0 °F 36.4 °F 35.6 °F 81% 30.09 in 10.0 mi NNE 6.9 mph - N/A   Clear
12:55 AM 41.0 °F 37.1 °F 35.6 °F 81% 30.09 in 10.0 mi North 5.8 mph - N/A   Clear
1:15 AM 42.8 °F 38.6 °F 35.6 °F 76% 30.09 in 10.0 mi NNE 6.9 mph - N/A   Clear
1:35 AM 42.8 °F 38.6 °F 35.6 °F 76% 30.09 in 10.0 mi NNE 6.9 mph - N/A   Clear
1:55 AM 42.8 °F 40.1 °F 37.4 °F 81% 30.09 in 10.0 mi North 4.6 mph - N/A   Clear
2:15 AM 42.8 °F 40.1 °F 35.6 °F 76% 30.09 in 10.0 mi North 4.6 mph - N/A   Clear
2:35 AM 41.0 °F 37.1 °F 35.6 °F 81% 30.10 in 10.0 mi North 5.8 mph - N/A   Clear
2:55 AM 41.0 °F 38.0 °F 35.6 °F 81% 30.09 in 10.0 mi North 4.6 mph - N/A   Clear
3:15 AM 41.0 °F 38.0 °F 35.6 °F 81% 30.09 in 10.0 mi North 4.6 mph - N/A   Clear
3:35 AM 39.2 °F 35.0 °F 35.6 °F 87% 30.09 in 10.0 mi North 5.8 mph - N/A   Clear
3:55 AM 41.0 °F 37.1 °F 37.4 °F 87% 30.10 in 10.0 mi North 5.8 mph - N/A   Mostly Cloudy
4:15 AM 42.8 °F 38.6 °F 37.4 °F 81% 30.10 in 10.0 mi North 6.9 mph - N/A   Overcast
4:35 AM 42.8 °F 38.6 °F 37.4 °F 81% 30.11 in 10.0 mi North 6.9 mph - N/A   Overcast
4:55 AM 42.8 °F 38.0 °F 37.4 °F 81% 30.11 in 10.0 mi North 8.1 mph - N/A   Overcast
5:15 AM 42.8 °F 38.0 °F 37.4 °F 81% 30.11 in 10.0 mi North 8.1 mph - N/A   Mostly Cloudy
5:35 AM 42.8 °F 38.6 °F 37.4 °F 81% 30.12 in 10.0 mi North 6.9 mph - N/A   Mostly Cloudy
5:55 AM 42.8 °F 38.6 °F 37.4 °F 81% 30.12 in 10.0 mi North 6.9 mph - N/A   Mostly Cloudy
6:15 AM 42.8 °F 38.0 °F 37.4 °F 81% 30.12 in 10.0 mi North 8.1 mph - N/A   Mostly Cloudy
6:35 AM 42.8 °F 38.0 °F 37.4 °F 81% 30.13 in 10.0 mi North 8.1 mph - N/A   Mostly Cloudy
6:55 AM 42.8 °F 38.0 °F 37.4 °F 81% 30.13 in 10.0 mi North 8.1 mph - N/A   Mostly Cloudy
7:15 AM 42.8 °F 39.3 °F 37.4 °F 81% 30.13 in 10.0 mi North 5.8 mph - N/A   Scattered Clouds
7:35 AM 42.8 °F 38.0 °F 37.4 °F 81% 30.13 in 10.0 mi North 8.1 mph - N/A   Partly Cloudy
7:55 AM 42.8 °F 38.0 °F 37.4 °F 81% 30.14 in 10.0 mi North 8.1 mph - N/A   Partly Cloudy
8:15 AM 44.6 °F 39.7 °F 37.4 °F 76% 30.14 in 10.0 mi North 9.2 mph - N/A   Clear
8:35 AM 44.6 °F 40.2 °F 39.2 °F 81% 30.15 in 10.0 mi NNE 8.1 mph - N/A   Clear
8:55 AM 46.4 °F 42.4 °F 39.2 °F 76% 30.15 in 10.0 mi North 8.1 mph - N/A   Clear
9:15 AM 48.2 °F - 39.2 °F 71% 30.14 in 10.0 mi NNE 9.2 mph - N/A   Clear
9:35 AM 50.0 °F - 39.2 °F 66% 30.15 in 10.0 mi North 11.5 mph - N/A   Clear
9:55 AM 51.8 °F - 39.2 °F 62% - 10.0 mi NNE 10.4 mph - N/A   Clear
10:15 AM 51.8 °F - 39.2 °F 62% - 10.0 mi NNE 9.2 mph - N/A   Clear
10:35 AM 53.6 °F - 39.2 °F 58% - 10.0 mi NNE 11.5 mph - N/A   Clear
10:55 AM 53.6 °F - 39.2 °F 58% - 10.0 mi NNE 9.2 mph - N/A   Scattered Clouds
11:15 AM 53.6 °F - 37.4 °F 54% - 10.0 mi ENE 9.2 mph - N/A   Partly Cloudy
11:35 AM 53.6 °F - 37.4 °F 54% - 10.0 mi North 11.5 mph - N/A   Partly Cloudy
11:55 AM 53.6 °F - 37.4 °F 54% - 10.0 mi NNE 10.4 mph - N/A   Partly Cloudy
12:15 PM 53.6 °F - 35.6 °F 51% - 10.0 mi North 10.4 mph - N/A   Partly Cloudy
12:35 PM 53.6 °F - 37.4 °F 54% - 10.0 mi NE 11.5 mph 19.6 mph N/A   Clear
12:55 PM 53.6 °F - 37.4 °F 54% - 10.0 mi East 10.4 mph - N/A   Clear
1:15 PM 53.6 °F - 35.6 °F 51% - 10.0 mi ENE 10.4 mph - N/A   Clear
1:35 PM - - - N/A% - 10.0 mi ENE 12.7 mph - N/A   Clear
1:55 PM - - - N/A% - 10.0 mi ENE 12.7 mph - N/A   Clear
2:15 PM - - - N/A% - 10.0 mi ENE 13.8 mph - N/A   Clear
2:35 PM 53.6 °F - 33.8 °F 47% 30.11 in 10.0 mi ENE 12.7 mph 18.4 mph N/A   Clear
2:55 PM 51.8 °F - 35.6 °F 54% 30.11 in 10.0 mi ENE 11.5 mph - N/A   Clear
3:15 PM 51.8 °F - 37.4 °F 58% 30.12 in 10.0 mi ENE 12.7 mph 16.1 mph N/A   Clear
3:35 PM 51.8 °F - 35.6 °F 54% 30.12 in 10.0 mi ENE 12.7 mph 16.1 mph N/A   Clear
3:55 PM 50.0 °F - 35.6 °F 58% 30.13 in 10.0 mi ENE 11.5 mph - N/A   Clear
4:15 PM 48.2 °F - 37.4 °F 66% 30.14 in 10.0 mi ENE 8.1 mph - N/A   Clear
4:35 PM 48.2 °F - 35.6 °F 62% 30.14 in 10.0 mi NE 8.1 mph - N/A   Clear
5:15 PM 46.4 °F 42.9 °F 35.6 °F 66% 30.15 in 10.0 mi NE 6.9 mph - N/A   Clear
5:35 PM 46.4 °F 42.9 °F 35.6 °F 66% 30.16 in 10.0 mi NE 6.9 mph - N/A   Clear
5:55 PM 46.4 °F 42.4 °F 35.6 °F 66% 30.17 in 10.0 mi NE 8.1 mph - N/A   Clear
6:15 PM 46.4 °F 42.4 °F 37.4 °F 71% 30.17 in 10.0 mi NE 8.1 mph - N/A   Clear
6:35 PM 44.6 °F 40.2 °F 35.6 °F 71% 30.18 in 10.0 mi NNE 8.1 mph - N/A   Clear
6:55 PM 44.6 °F 40.7 °F 35.6 °F 71% 30.18 in 10.0 mi NNE 6.9 mph - N/A   Clear
7:15 PM 44.6 °F 40.7 °F 35.6 °F 71% 30.18 in 10.0 mi NNE 6.9 mph - N/A   Clear
7:35 PM 42.8 °F 39.3 °F 35.6 °F 76% 30.18 in 10.0 mi North 5.8 mph - N/A   Clear
7:55 PM 42.8 °F 40.1 °F 33.8 °F 70% 30.18 in 10.0 mi North 4.6 mph - N/A   Clear
8:15 PM 41.0 °F 36.4 °F 33.8 °F 76% 30.18 in 10.0 mi NNE 6.9 mph - N/A   Clear
8:35 PM 41.0 °F 36.4 °F 33.8 °F 76% 30.18 in 10.0 mi NNE 6.9 mph - N/A   Clear
8:55 PM 41.0 °F 37.1 °F 33.8 °F 76% 30.19 in 10.0 mi NNE 5.8 mph - N/A   Clear
9:15 PM 41.0 °F 38.0 °F 33.8 °F 76% 30.19 in 10.0 mi North 4.6 mph - N/A   Clear
9:35 PM 39.2 °F 35.0 °F 32.0 °F 75% 30.19 in 10.0 mi NNE 5.8 mph - N/A   Clear
9:55 PM 39.2 °F 37.0 °F 33.8 °F 81% 30.19 in 10.0 mi North 3.5 mph - N/A   Clear
10:15 PM 39.2 °F 35.0 °F 33.8 °F 81% 30.20 in 10.0 mi North 5.8 mph - N/A   Clear
10:35 PM 39.2 °F 35.0 °F 33.8 °F 81% 30.19 in 10.0 mi North 5.8 mph - N/A   Clear
10:55 PM 41.0 °F 36.4 °F 33.8 °F 76% 30.19 in 10.0 mi North 6.9 mph - N/A   Clear
11:15 PM 39.2 °F 35.0 °F 32.0 °F 75% 30.19 in 10.0 mi North 5.8 mph - N/A   Clear
11:35 PM 39.2 °F 35.0 °F 32.0 °F 75% 30.18 in 10.0 mi North 5.8 mph - N/A   Clear
11:55 PM 39.2 °F 34.2 °F 32.0 °F 75% 30.18 in 10.0 mi North 6.9 mph - N/A   Clear